Regional Weather Roundup
Issued by NWS

Home | Current Version | Previous Version | Graphics & Text | Print | Product List | Glossary On
Versions: 1 2 3 4 5 6 7 8 9 10 11 12 13 14 15 16 17 18 19 20 21 22 23 24 25 26 27 28 29 30 31 32 33 34 35 36 37 38 39 40 41 42 43 44 45 46 47 48 49 50
329
ASUS43 KLMK 180010
RWRKY
KENTUCKY REGIONAL WEATHER ROUNDUP
NATIONAL WEATHER SERVICE LOUISVILLE KY
800 PM EDT TUE OCT 17 2017

NOTE "FAIR" INDICATES FEW OR NO CLOUDS BELOW 12,000 FEET
WITH NO SIGNIFICANT WEATHER AND/OR OBSTRUCTIONS TO VISIBILITY.

KYZ001>023-026-027-061>063-070>075-180100-
WESTERN AND SOUTH CENTRAL KENTUCKY

CITY           SKY/WX    TMP DP  RH WIND       PRES   REMARKS
PADUCAH        CLEAR     57  43  59 SE3       30.23S
HENDERSON      CLEAR     54  44  69 CALM      30.25S
OWENSBORO      PTCLDY    59  45  59 CALM      30.26S
HOPKINSVILLE   PTCLDY    59  45  60 CALM      30.25R
BOWLING GREEN  CLEAR     57  44  62 CALM      30.27R
GLASGOW        CLEAR     51  44  76 CALM      30.27R
$$

KYZ024-025-028>034-038-045-046-053-180100-
NORTH CENTRAL KENTUCKY

CITY           SKY/WX    TMP DP  RH WIND       PRES   REMARKS
LOUISVILLE/SDF PTCLDY    61  41  47 SE6       30.26S
LOUISVILLE/LOU CLEAR     57  44  62 CALM      30.27S
FORT KNOX      CLEAR     50  45  81 CALM      30.26R
$$

KYZ035>037-039>044-047>052-055>060-089>105-180100-
NORTHEAST KENTUCKY

CITY           SKY/WX    TMP DP  RH WIND       PRES   REMARKS
LEXINGTON      CLOUDY    56  43  61 CALM      30.29R
COVINGTON      PTCLDY    56  42  59 S3        30.27R
FRANKFORT      CLOUDY    52  43  71 CALM      30.27R
$$

KYZ054-064>069-076>088-106>120-180100-
SOUTHEAST KENTUCKY

CITY           SKY/WX    TMP DP  RH WIND       PRES   REMARKS
JACKSON        CLEAR     56  38  50 CALM      30.29R
LONDON         CLEAR     53  43  68 CALM      30.28R
SOMERSET       CLOUDY    52  43  71 CALM      30.29S
MIDDLESBORO    CLEAR     52  44  74 W3        30.30R
MONTICELLO     NOT AVBL
$$





USA.gov is the U.S. government's official web portal to all federal, state and local government web resources and services.